This demonstration page uses our WeatherBlox Daily Observations layout. Learn more.

Left ArrowRight Arrow

44.89941, -97.11507

Hourly Observations for August 14, 2016

Temp ( °F °C ) Dew Point ( °F °C ) Humidity (%) Winds ( mph kmh ) Pressure ( in mb ) Visibility ( mi km ) Precip ( " mm )
12:53 am 00:53 Clear 63 17.2 58 14.4 84 84 Calm 30.03 1017 10 16 0.00 0.00
1:53 am 01:53 Clear 62 16.7 58 14.4 86 86 Calm 30.03 1017 10 16 0.00 0.00
2:53 am 02:53 Clear 61 16.1 58 14.4 90 90 Calm 30.03 1017 10 16 0.00 0.00
3:53 am 03:53 Clear 61 16.1 58 14.4 90 90 S 3 6 30.04 1017 10 16 0.00 0.00
4:53 am 04:53 Clear 60 15.6 58 14.4 93 93 Calm 30.04 1017 10 16 0.00 0.00
5:53 am 05:53 Clear with Mist and Fog 59 15 58 14.4 96 96 SSW 3 6 30.05 1018 2 3 0.00 0.00
5:55 am 05:55 Clear with Mist and Fog 59 15 58 14.4 96 96 SSW 3 6 30.03 1017 1 2 0.00 0.00
6:02 am 06:02 Mostly Cloudy with Fog 59 15 57 13.9 93 93 SSW 5 7 30.03 1017 1 1 0.00 0.00
6:14 am 06:14 Clear with Mist and Fog 59 15 57 13.9 93 93 S 3 6 30.03 1017 2 2 0.00 0.00
6:18 am 06:18 Clear with Mist and Fog 59 15 58 14.4 96 96 Calm 30.06 1018 3 5 0.00 0.00
6:53 am 06:53 Sunny 60 15.6 58 14.4 93 93 Calm 30.06 1018 10 16 0.00 0.00
7:53 am 07:53 Sunny 63 17.2 60 15.6 90 90 Calm 30.07 1018 10 16 0.00 0.00
8:53 am 08:53 Sunny 69 20.6 61 16.1 76 76 W 5 7 30.07 1018 10 16 0.00 0.00
9:53 am 09:53 Sunny 73 22.8 60 15.6 64 64 W 3 6 30.07 1018 10 16 0.00 0.00
10:53 am 10:53 Sunny 76 24.4 59 15 56 56 Calm 30.07 1018 10 16 0.00 0.00
11:53 am 11:53 Sunny 78 25.6 57 13.9 48 48 W 7 11 30.06 1018 10 16 0.00 0.00
12:53 pm 12:53 Sunny 80 26.7 53 11.7 39 39 N 6 9 30.06 1018 10 16 0.00 0.00
1:53 pm 13:53 Sunny 81 27.2 50 10 34 34 VRB 3 6 30.06 1018 10 16 0.00 0.00
2:53 pm 14:53 Sunny 82 27.8 51 10.6 34 34 undefined N/A 30.04 1017 10 16 0.00 0.00
3:53 pm 15:53 Sunny 81 27.2 51 10.6 35 35 VRB 6 9 30.03 1017 10 16 0.00 0.00
4:53 pm 16:53 Sunny 82 27.8 54 12.2 38 38 VRB 6 9 30.02 1017 10 16 0.00 0.00
5:53 pm 17:53 Sunny 81 27.2 54 12.2 39 39 SW 8 13 30.02 1017 10 16 0.00 0.00
6:53 pm 18:53 Sunny 79 26.1 55 12.8 44 44 S 8 13 30.01 1016 10 16 0.00 0.00
7:53 pm 19:53 Sunny 74 23.3 59 15 60 60 S 9 15 30.01 1016 10 16 0.00 0.00
8:53 pm 20:53 Clear 72 22.2 59 15 64 64 SSE 7 11 30.01 1016 10 16 0.00 0.00
9:53 pm 21:53 Clear 70 21.1 60 15.6 71 71 S 7 11 30.03 1017 10 16 0.00 0.00
10:53 pm 22:53 Clear 69 20.6 61 16.1 76 76 SSE 8 13 30.03 1017 10 16 0.00 0.00
11:53 pm 23:53 Clear 69 20.6 59 15 70 70 SSE 10 17 30.01 1016 10 16 0.00 0.00

Powered by AerisWeather